Temp_Advection
nan nan nan nan nan nan nan nan nan nan nan nan nan nan nan nan nan nan nan nan nan nan nan nan nan nan nan nan nan nan nan nan nan nan nan nan nan nan
nan 0 0 1 0 0 0 0 0 -0 -1 -1 -0 0 1 1 0 1 1 0 0 1 1 0 0 0 0 0 0 0 0 -0 -0 -0 -0 -0 -0 nan
nan -0 0 1 1 1 0 0 0 -0 -1 -1 -0 -0 0 1 1 1 0 0 1 1 1 1 0 0 0 0 0 0 0 -0 -0 -0 -0 -0 -0 nan
nan 1 0 1 1 0 0 0 -0 0 -0 -1 -0 -0 -0 -0 0 1 0 1 1 1 0 0 0 0 0 1 1 0 0 0 -0 -1 -0 0 0 nan
nan 0 1 0 0 0 0 0 0 0 0 -0 -0 -0 -0 -0 -0 0 1 1 1 1 1 1 1 0 0 1 1 1 0 0 -0 -0 -0 0 0 nan
nan 0 1 0 0 0 1 0 -0 0 1 0 -0 -0 -0 -0 -0 0 0 0 1 1 1 1 1 0 0 1 1 1 1 0 -0 -0 -0 0 0 nan
nan 0 0 0 0 0 0 0 0 0 0 0 0 -0 -0 -0 -0 0 0 0 1 1 1 1 0 0 1 1 1 1 1 0 -0 -0 -0 -0 0 nan
nan 0 0 0 -0 -0 -0 -0 -0 0 0 0 -0 -0 -0 0 0 0 0 1 0 0 1 1 0 1 1 1 1 0 1 0 0 -0 -0 -0 0 nan
nan 0 -0 -0 -0 -0 -0 0 0 -0 -0 0 0 0 0 0 0 0 1 1 0 1 1 0 0 1 1 1 0 1 1 0 0 0 -0 -0 -0 nan
nan 0 -0 -0 -0 0 0 -0 -0 0 0 0 0 1 0 0 0 0 1 1 1 1 1 1 0 1 1 0 0 1 0 0 0 0 0 0 -0 nan
nan 0 0 0 0 0 -0 -0 -0 -0 0 0 0 0 0 0 0 0 0 1 0 0 1 1 1 1 1 0 0 0 1 1 0 0 0 0 0 nan
nan 0 0 -0 -0 -1 -0 -0 -0 0 1 0 0 0 0 0 0 0 0 0 0 1 1 1 1 1 0 0 0 0 1 0 -0 0 0 0 0 nan
nan 0 -0 -0 0 0 0 -0 0 0 0 0 0 0 1 0 0 0 1 0 1 1 1 1 1 1 0 0 0 0 0 0 0 0 0 0 1 nan
nan 0 0 0 0 0 0 0 -0 0 0 1 1 1 1 0 0 1 1 1 1 1 1 0 0 0 0 0 0 0 0 0 -0 -0 0 0 0 nan
nan 0 0 0 -0 0 0 -0 0 0 0 0 1 1 1 0 0 0 0 0 1 1 0 0 0 0 0 0 0 0 0 -0 -0 -0 0 0 0 nan
nan 0 0 -0 0 0 -0 0 0 0 0 0 0 0 0 0 0 0 1 1 1 0 0 0 0 0 0 0 0 -0 -0 0 0 -0 -0 0 1 nan
nan 0 -0 0 0 -0 0 0 0 0 0 0 0 0 0 1 1 1 1 0 0 0 0 0 0 0 0 0 0 -0 -0 0 0 -0 -1 -1 0 nan
nan 0 0 0 0 0 0 0 -0 0 0 0 0 0 0 0 1 1 1 0 0 0 0 0 0 0 0 0 0 0 -0 -0 0 0 -0 -1 -1 nan
nan -0 -0 0 0 -0 0 0 0 0 0 0 0 0 0 1 1 1 0 0 0 1 1 0 0 0 0 0 0 -0 0 0 0 0 0 -0 -1 nan
nan -0 0 0 -0 -0 0 0 0 0 0 0 0 0 0 0 0 1 0 0 0 1 1 0 0 0 0 0 0 0 -0 -0 0 -0 -0 -0 -0 nan
nan -0 -0 -0 -0 -0 -0 0 0 0 0 0 0 0 0 0 0 1 1 1 1 1 1 0 -0 0 0 0 0 0 0 -0 -0 -0 -0 -1 -1 nan
nan -0 -0 0 -0 -0 -0 0 0 0 0 -0 0 1 1 0 0 1 1 0 1 1 1 -0 0 0 0 0 -0 0 0 0 0 0 -0 -0 -0 nan
nan nan nan nan nan nan nan nan nan nan nan nan nan nan nan nan nan nan nan nan nan nan nan nan nan nan nan nan nan nan nan nan nan nan nan nan nan nan
Wind_Speed
36 36 36 35 34 34 33 32 28 24 23 23 28 30 34 35 33 31 30 28 28 26 23 21 24 27 28 26 23 21 20 19 19 19 19 19 20 21
35 36 36 36 35 36 35 33 32 31 29 24 17 16 25 32 33 35 32 31 31 27 27 26 25 29 29 27 26 24 22 21 21 20 20 20 21 22
37 36 34 36 35 35 35 33 33 32 31 27 25 21 18 19 24 27 32 34 33 31 28 28 27 27 27 27 26 26 24 22 23 22 20 21 22 22
40 38 36 35 36 34 34 34 33 33 33 32 28 24 22 20 20 24 25 28 29 29 28 28 27 26 26 27 26 26 24 24 23 22 21 23 23 23
45 39 36 35 32 31 32 32 31 31 33 34 32 29 26 24 23 23 25 27 26 27 28 27 26 26 25 26 27 27 24 24 22 22 24 23 23 24
37 36 35 32 29 27 29 30 29 30 30 35 35 33 30 27 26 26 25 25 25 27 29 28 28 27 27 26 26 24 23 20 23 24 25 23 24 24
29 29 32 33 26 24 25 26 26 26 28 30 32 34 33 31 30 27 27 27 27 28 29 30 31 29 28 26 24 24 20 21 24 26 24 24 24 23
26 27 26 24 24 22 23 22 23 24 25 27 30 33 33 32 30 30 30 29 30 28 30 29 30 32 31 28 25 22 21 24 25 25 25 25 23 23
22 25 24 23 23 24 24 24 26 26 26 27 29 31 32 32 30 33 32 31 29 28 29 30 29 31 29 24 23 20 22 24 23 24 25 23 23 23
14 16 20 24 21 23 22 24 26 27 27 30 31 31 28 29 29 32 32 31 32 31 30 30 28 23 22 21 19 19 21 21 23 24 22 23 23 22
16 18 19 23 23 22 21 26 26 29 28 30 31 30 29 30 29 28 29 30 29 30 28 27 26 23 20 18 17 17 20 22 23 20 21 20 23 25
14 20 21 24 29 34 33 36 31 21 22 23 23 17 22 27 27 25 24 23 26 29 28 25 23 19 14 15 17 19 20 19 17 15 18 21 23 26
11 11 11 11 13 17 21 20 20 21 22 23 25 24 25 24 22 22 23 24 25 25 19 17 19 17 15 13 13 13 12 13 15 16 17 20 23 24
6 6 8 9 11 13 14 15 17 18 20 21 21 21 22 22 22 23 22 22 21 21 20 17 14 12 12 14 13 12 12 13 14 16 17 19 19 22
6 6 6 7 9 10 12 13 16 17 19 19 20 19 18 17 18 19 19 18 18 17 15 14 14 13 13 13 12 12 12 13 15 14 15 17 20 20
6 7 8 8 9 9 9 9 10 11 11 12 13 14 15 15 16 15 16 15 15 16 16 14 12 12 11 11 11 11 12 10 14 16 16 17 17 16
7 8 9 9 9 10 10 11 11 10 10 11 12 14 15 16 16 16 15 15 17 16 14 12 11 11 10 11 11 11 11 12 14 17 17 16 13 14
9 11 10 8 8 8 9 10 10 9 8 10 12 14 15 17 17 17 17 17 16 14 13 12 12 10 10 10 10 10 11 12 14 14 15 16 15 13
9 10 11 10 11 10 10 11 11 10 9 10 11 12 15 17 19 19 18 19 17 16 15 13 12 11 10 10 11 11 12 13 13 11 11 14 17 15
10 13 13 13 13 12 11 13 12 12 12 11 11 12 14 18 20 21 20 20 19 18 15 13 11 10 10 9 10 12 11 11 11 11 11 13 15 16
11 12 13 13 14 13 11 12 13 14 13 13 13 15 15 17 20 22 21 20 20 18 14 12 12 11 10 11 10 9 8 9 11 11 12 15 19 19
7 11 13 13 12 13 14 14 15 16 17 16 16 17 17 17 19 21 22 22 21 17 13 12 12 11 11 10 9 10 7 5 7 8 10 12 15 17
8 8 10 13 14 13 12 14 15 16 17 18 18 17 18 18 19 20 22 22 18 15 14 13 12 11 9 9 9 9 8 7 6 4 5 9 12 15
Wind_Direction
247 247 249 249 250 251 253 256 254 261 265 273 261 253 248 248 249 251 256 256 260 258 263 260 251 257 267 274 279 285 291 294 296 298 301 301 305 307
245 246 248 249 248 249 252 255 255 256 263 265 268 274 261 254 252 247 249 253 256 256 260 262 256 259 265 271 276 281 285 291 293 296 297 299 302 305
248 246 247 249 248 247 250 252 253 253 256 258 260 267 271 263 252 249 250 253 255 255 254 258 258 260 264 268 272 278 283 288 291 292 295 297 300 302
250 250 248 246 248 247 248 250 253 255 254 258 261 264 268 267 261 247 248 248 248 251 252 255 258 259 261 265 270 273 277 283 286 290 292 296 298 301
248 249 250 244 246 247 248 247 249 253 252 254 260 263 266 264 258 252 250 249 248 248 250 254 255 255 258 263 268 274 276 280 285 286 291 295 297 300
251 249 248 244 245 250 249 251 251 249 251 252 257 261 263 261 259 258 257 258 258 253 254 254 254 256 259 268 273 274 277 285 283 286 293 294 298 298
257 256 252 241 236 247 251 253 255 254 252 249 254 258 258 257 259 266 267 265 260 257 255 255 256 262 267 275 267 272 278 281 284 288 290 295 297 298
252 254 247 236 237 249 255 255 253 252 250 254 254 257 260 261 264 266 267 265 260 262 260 258 259 264 266 267 267 271 277 280 282 285 290 296 296 299
250 248 233 228 232 238 244 248 247 244 247 251 254 257 262 263 269 268 268 266 265 267 263 254 259 265 264 261 267 270 272 275 277 283 289 292 295 299
237 236 229 224 237 242 246 249 252 252 250 253 254 257 259 261 260 261 262 261 261 256 254 256 261 252 255 257 262 264 268 272 278 283 286 292 298 299
238 235 230 235 238 256 265 254 255 259 260 256 261 261 257 259 260 261 256 251 253 258 254 254 255 254 256 257 259 264 268 270 275 279 288 293 297 302
235 238 242 243 248 251 261 262 264 256 232 239 242 248 247 253 257 252 251 248 256 259 253 239 244 250 253 256 260 267 269 269 275 283 293 298 303 305
215 206 214 228 231 232 244 240 239 249 252 252 250 248 252 253 250 250 252 254 251 248 241 240 247 244 241 254 266 272 271 276 286 292 297 301 301 305
214 223 227 233 243 248 251 251 249 252 253 255 249 248 248 246 248 249 245 241 237 236 239 244 231 237 251 260 264 268 277 284 289 297 299 301 304 308
214 219 223 229 243 251 250 258 257 255 256 256 253 251 246 242 240 238 235 235 236 239 234 230 235 247 255 256 259 271 282 289 295 297 301 305 307 311
229 225 232 231 240 244 247 248 253 253 250 249 248 244 243 236 235 236 234 232 226 221 221 231 240 248 248 253 263 271 283 291 297 298 305 310 311 317
237 237 239 239 241 247 249 252 253 254 252 247 242 240 238 236 230 227 224 223 218 224 229 234 236 238 244 255 268 278 284 292 297 303 307 309 316 326
241 241 235 236 238 248 260 265 257 249 248 245 243 241 242 238 232 227 222 221 227 228 229 226 228 236 250 262 270 277 287 295 294 297 305 311 326 337
252 253 253 250 249 254 254 257 260 261 253 252 252 250 243 236 234 231 229 227 226 224 222 224 231 241 252 267 279 289 288 287 292 301 305 312 325 339
256 254 251 257 262 253 251 251 254 258 258 260 261 258 249 238 235 234 235 233 229 226 223 228 235 243 250 264 275 281 283 290 298 310 314 318 325 336
254 252 251 254 267 269 263 261 256 249 255 263 267 264 257 246 240 238 236 232 229 224 220 226 234 242 251 261 272 281 293 299 307 315 325 334 338 342
287 262 261 255 259 267 267 267 265 256 249 252 259 259 255 251 245 240 233 230 227 220 213 223 232 237 249 264 281 284 290 284 296 308 326 331 332 333
312 292 273 260 255 255 258 259 259 258 254 255 254 251 248 244 238 230 229 226 220 208 210 219 229 243 259 275 280 280 285 289 288 266 320 332 331 330
Height
1539 1543 1546 1550 1554 1557 1560 1563 1566 1567 1567 1569 1570 1571 1572 1575 1577 1579 1580 1581 1583 1584 1584 1586 1586 1584 1584 1585 1586 1586 1585 1583 1581 1579 1578 1578 1576 1574
1532 1535 1539 1542 1547 1550 1553 1556 1559 1561 1562 1564 1565 1565 1566 1568 1571 1573 1575 1576 1577 1578 1579 1579 1579 1578 1578 1580 1581 1581 1581 1579 1577 1575 1574 1573 1571 1570
1524 1528 1531 1535 1539 1544 1547 1550 1552 1555 1556 1559 1559 1561 1561 1562 1563 1565 1567 1569 1571 1571 1572 1574 1574 1574 1574 1574 1575 1575 1575 1574 1573 1571 1569 1568 1567 1565
1516 1519 1524 1528 1532 1536 1540 1543 1545 1548 1551 1553 1555 1556 1557 1557 1558 1559 1560 1562 1563 1566 1565 1567 1569 1569 1569 1569 1569 1569 1569 1568 1568 1567 1565 1563 1562 1560
1505 1511 1516 1519 1525 1528 1533 1536 1538 1541 1543 1546 1549 1550 1551 1553 1553 1553 1554 1556 1556 1558 1559 1560 1563 1563 1563 1563 1563 1563 1563 1563 1562 1562 1561 1558 1556 1555
1497 1504 1508 1513 1517 1521 1526 1530 1531 1532 1536 1539 1542 1543 1545 1546 1547 1549 1549 1551 1551 1552 1552 1553 1556 1557 1557 1556 1556 1556 1557 1557 1557 1556 1555 1553 1551 1550
1493 1497 1501 1505 1510 1516 1519 1523 1525 1526 1529 1531 1534 1536 1538 1538 1540 1544 1545 1545 1545 1546 1546 1547 1550 1551 1551 1550 1549 1548 1550 1551 1551 1551 1549 1548 1546 1545
1486 1491 1494 1499 1504 1508 1512 1515 1518 1520 1522 1524 1526 1528 1531 1533 1535 1537 1538 1538 1538 1541 1540 1541 1542 1542 1543 1543 1542 1542 1543 1545 1545 1544 1543 1542 1541 1540
1481 1484 1488 1493 1499 1503 1507 1509 1511 1513 1515 1517 1518 1520 1523 1527 1530 1530 1530 1531 1531 1531 1533 1532 1534 1535 1537 1537 1536 1536 1538 1539 1539 1538 1537 1537 1534 1532
1478 1481 1484 1489 1494 1498 1500 1503 1506 1507 1509 1510 1511 1514 1516 1519 1520 1522 1523 1523 1523 1524 1525 1526 1527 1528 1531 1531 1531 1531 1533 1534 1534 1533 1532 1530 1529 1528
1476 1478 1481 1485 1488 1491 1493 1497 1499 1501 1503 1504 1505 1506 1508 1510 1512 1513 1513 1515 1515 1517 1518 1519 1520 1522 1524 1524 1525 1526 1527 1528 1528 1528 1526 1525 1523 1522
1472 1474 1477 1479 1483 1486 1489 1490 1492 1494 1496 1496 1497 1499 1500 1502 1503 1505 1507 1507 1509 1510 1511 1513 1514 1517 1518 1519 1520 1522 1522 1522 1523 1523 1521 1520 1517 1516
1469 1471 1473 1475 1477 1480 1482 1483 1486 1488 1487 1490 1491 1492 1494 1495 1496 1499 1501 1502 1503 1503 1505 1508 1509 1511 1514 1515 1517 1518 1518 1518 1519 1518 1516 1515 1513 1510
1467 1468 1469 1472 1474 1476 1478 1480 1481 1483 1484 1484 1484 1486 1488 1489 1491 1493 1495 1496 1497 1499 1501 1503 1505 1508 1510 1511 1513 1514 1514 1514 1514 1513 1512 1510 1508 1506
1464 1465 1466 1469 1471 1473 1475 1476 1478 1478 1478 1479 1480 1481 1483 1484 1486 1488 1491 1492 1493 1496 1498 1501 1503 1505 1506 1507 1508 1510 1510 1509 1509 1508 1508 1506 1503 1501
1463 1464 1466 1467 1469 1470 1472 1473 1474 1474 1474 1475 1476 1477 1479 1480 1482 1484 1487 1488 1491 1493 1496 1498 1499 1501 1502 1503 1505 1505 1505 1505 1504 1503 1502 1501 1499 1497
1462 1463 1464 1465 1466 1468 1469 1470 1472 1472 1472 1473 1474 1476 1477 1479 1479 1482 1484 1486 1489 1491 1493 1494 1496 1497 1498 1500 1500 1501 1501 1500 1498 1497 1496 1496 1495 1492
1459 1461 1461 1462 1463 1464 1466 1468 1469 1469 1469 1470 1471 1472 1474 1475 1477 1479 1481 1484 1487 1487 1489 1491 1492 1493 1495 1497 1497 1496 1496 1495 1494 1493 1491 1490 1490 1488
1455 1458 1458 1458 1460 1460 1460 1463 1465 1466 1465 1466 1467 1468 1469 1471 1473 1475 1478 1480 1482 1483 1485 1487 1489 1491 1491 1493 1494 1493 1493 1492 1490 1489 1488 1486 1484 1483
1453 1453 1455 1456 1458 1455 1455 1457 1459 1461 1462 1462 1463 1465 1466 1467 1469 1471 1473 1476 1478 1479 1482 1484 1486 1487 1488 1489 1489 1490 1488 1487 1485 1485 1484 1482 1480 1478
1449 1450 1451 1453 1453 1453 1452 1453 1455 1455 1457 1458 1459 1461 1462 1463 1465 1467 1469 1471 1473 1475 1478 1481 1483 1485 1485 1486 1486 1485 1482 1481 1480 1480 1479 1476 1474 1473
1447 1448 1449 1449 1449 1449 1449 1450 1451 1451 1452 1452 1453 1456 1457 1459 1461 1463 1465 1467 1469 1471 1475 1478 1480 1481 1482 1483 1482 1481 1478 1478 1477 1476 1475 1473 1472 1469
1444 1444 1445 1444 1445 1445 1445 1446 1446 1447 1448 1448 1448 1449 1451 1452 1455 1458 1461 1463 1466 1468 1471 1474 1478 1479 1479 1479 1479 1478 1474 1473 1473 1473 1471 1470 1468 1467